SCP
0 0 0 0 0 0 0 0 0 0 0 0 0 0 0 0 0 0 0 0 0 0 0 0 0 0 0 0 0 0 0 0 0 0 0 0 0 0 0 0 0 0 0 0 0 0 0
0 0 0 0 0 0 0 0 0 0 0 0 0 0 0 0 0 0 0 0 0 0 0 0 0 0 0 0 0 0 0 0 0 0 0 0 0 0 0 0 0 0 0 0 0 0 0
-0 -0 -0 -0 0 0 0 0 0 -0 -0 -0 -0 0 0 0 0 0 0 0 0 0 0 0 0 0 0 0 0 0 0 0 0 0 0 0 0 0 0 0 0 0 0 0 0 0 0
0 0 0 -0 -0 -0 -0 -0 -0 -0 -0 -0 -0 -0 -0 -0 0 0 0 0 0 0 0 0 0 0 0 0 0 0 0 0 0 0 0 0 0 0 0 0 0 0 0 0 0 0 0
0 0 -0 -0 -0 -0 -0 -0 -0 -0 -0 -0 -0 -0 -0 -0 -0 -0 0 0 0 -0 -0 0 0 0 0 0 0 0 0 0 0 0 0 0 0 0 0 0 0 0 0 0 0 0 0
-0 -0 -0 -0 -0 -0 -0 -0 -0 -0 -0 -0 -0 -0 -0 -0 -0 0 -0 0 0 -0 -0 -0 0 0 0 0 0 -0 0 -0 0 0 0 0 0 0 0 0 0 0 0 0 0 0 0
-0 -0 -0 -0 -0 -0 -0 -0 -0 -0 -0 -0 -0 -0 0 0 -0 -0 0 0 -0 0 -0 0 -0 0 -0 0 0 0 0 0 0 0 0 0 0 0 0 0 0 0 0 0 0 0 0
-0 -0 -0 -0 -0 -0 -0 -0 -0 -0 -0 -0 -0 -0 -0 -0 -0 -0 0 0 0 -0 -0 0 0 0 0 -0 0 0 0 0 0 0 0 0 0 0 0 0 0 0 0 0 0 0 0
-0 -0 -0 -0 -0 -0 -0 -0 -0 -0 -0 -0 -0 -0 -0 -0 -0 0 0 0 0 0 -0 0 0 -0 0 0 0 0 -0 0 0 0 0 0 0 0 0 0 0 0 0 0 0 0 0
-0 -0 -0 -0 -0 -0 -0 -0 -0 -0 -0 -0 -0 -0 -0 -0 0 0 0 0 0 0 -0 -0 -0 0 0 -0 -0 -0 0 -0 0 0 0 0 0 0 0 0 0 0 0 0 0 0 0
-0 -0 -0 -0 -0 -0 -0 -0 -0 -0 -0 -0 0 0 -0 0 0 0 0 -0 -0 0 0 0 0 0 -0 -0 0 0 0 0 0 0 0 0 0 0 0 0 0 0 0 0 0 0 0
-0 -0 -0 -0 -0 -0 -0 -0 -0 -0 0 0 0 0 -0 0 0 0 0 0 0 -0 -0 -0 -0 -0 0 -0 0 0 0 0 0 0 0 0 0 0 0 0 0 0 0 0 0 0 0
-0 -0 -0 -0 -0 0 0 0 -0 0 0 0 0 0 -0 0 0 0 0 0 0 0 -0 -0 -0 -0 0 -0 -0 0 0 0 0 0 0 0 0 0 0 0 0 0 0 0 0 0 0
0 0 0 0 0 0 0 0 0 0 0 0 0 0 0 0 0 0 0 0 0 0 0 0 0 -0 -0 0 0 0 -0 -0 -0 -0 0 0 0 0 0 0 0 0 0 0 0 0 0
0 0 0 0 0 0 0 0 0 0 0 0 0 0 0 0 0 0 0 0 0 0 0 -0 0 0 0 0 -0 0 0 0 0 0 0 0 0 0 0 0 0 0 0 0 0 0 0
0 0 0 0 0 0 0 0 0 -0 -0 0 0 0 0 0 0 0 0 0 0 0 0 0 -0 0 0 -0 -0 -0 0 0 0 0 -0 0 0 -0 0 0 0 0 0 0 0 0 0
0 0 0 0 0 0 0 0 0 0 -0 0 0 0 0 0 0 0 0 0 0 -0 0 0 0 0 -0 -0 -0 0 0 0 0 0 0 0 0 0 -0 -0 0 0 0 0 0 0 0
0 0 0 0 0 0 0 0 0 0 0 0 0 0 0 0 0 0 0 0 0 0 -0 -0 -0 -0 -0 -0 -0 0 0 -0 -0 0 0 0 0 -0 -0 0 0 0 0 0 0 0 0
0 0 0 0 0 0 0 0 0 0 0 0 0 0 0 0 0 0 0 0 0 -0 0 -0 0 -0 -0 -0 -0 0 -0 -0 0 0 0 0 0 0 0 0 -0 0 0 0 0 0 0
0 0 0 0 0 0 0 0 0 0 0 0 0 0 0 0 0 0 0 0 0 0 0 -0 0 -0 -0 -0 0 -0 0 0 0 -0 -0 0 0 0 0 0 0 0 0 0 0 0 0
0 0 0 0 0 0 0 0 0 0 0 0 0 0 0 0 0 0 0 0 0 0 0 0 0 0 -0 -0 0 0 0 -0 -0 0 0 0 -0 0 0 0 0 0 0 0 0 0 0
0 0 0 0 0 0 0 0 0 0 0 0 0 0 0 0 0 0 0 0 0 0 -0 0 -0 0 -0 -0 -0 -0 -0 -0 -0 -0 -0 0 0 0 0 0 -0 0 0 0 0 0 0
0 0 0 0 0 0 0 0 0 0 0 0 0 0 0 0 0 0 0 0 0 0 0 0 -0 -0 0 -0 -0 -0 -0 -0 -0 0 -0 -0 0 0 0 -0 -0 0 0 0 0 0 0
0 0 0 0 0 0 0 0 0 0 0 0 0 0 0 0 0 0 0 0 0 0 0 0 0 0 -0 0 0 -0 -0 -0 -0 -0 -0 -0 -0 -0 -0 -0 0 0 0 0 0 0 -0
0 0 0 0 0 0 0 0 0 0 0 0 0 0 0 0 0 0 0 0 0 0 0 -0 0 0 -0 0 -0 0 0 0 -0 -0 -0 -0 -0 0 0 0 0 0 0 0 0 0 1
0 0 0 0 0 0 0 0 0 0 0 0 0 0 0 0 0 0 0 0 0 0 0 0 0 0 0 0 -0 -0 0 0 -0 -0 -0 -0 0 0 -0 0 0 0 0 0 0 0 0
0 0 0 0 0 0 0 0 0 0 0 0 0 0 0 0 0 0 0 0 0 0 0 0 0 0 0 -0 0 -0 0 0 0 0 0 0 0 0 -0 -0 -0 0 0 0 0 0 0
0 0 0 0 0 0 0 0 0 0 0 0 0 0 0 0 0 0 0 0 0 0 0 0 0 0 0 0 0 0 0 0 0 -0 -0 -0 0 -0 -0 -0 0 0 0 0 0 0 0
0 0 0 0 0 0 0 0 0 0 0 0 0 0 0 0 0 0 0 0 0 0 0 0 0 0 0 -0 0 0 0 0 0 -0 -0 0 0 0 0 -0 0 0 0 0 0 0 0
Wind_Speed_500mb
35 34 34 35 37 38 38 38 38 38 37 36 37 39 41 42 43 42 40 39 39 42 44 42 40 40 37 22 51 25 29 25 26 22 56 47 49 41 28 20 45 51 41 55 63 67 73
37 37 37 37 39 39 39 40 40 39 39 40 42 44 46 46 46 45 45 43 41 39 41 46 48 43 32 34 31 27 25 39 47 20 32 45 43 49 36 33 41 47 47 58 60 68 70
35 38 39 39 37 35 35 35 37 38 39 39 40 41 42 43 44 47 48 48 44 42 46 40 39 38 41 66 45 37 45 38 31 41 40 45 47 41 15 27 66 56 39 38 50 58 51
39 40 39 39 38 37 37 37 37 39 41 42 44 46 48 47 49 54 52 48 41 37 40 37 37 27 28 47 29 34 36 41 38 40 42 40 44 39 26 36 45 35 26 42 42 40 59
42 41 40 40 40 40 39 39 41 44 48 50 52 56 59 60 58 59 55 49 39 25 35 35 37 18 26 22 31 16 16 51 42 42 42 39 38 40 30 11 15 26 40 45 49 46 35
42 43 42 42 42 42 42 45 47 50 53 54 57 59 59 57 57 55 46 42 37 28 20 14 23 18 33 17 7 14 9 18 23 34 41 49 36 20 19 23 36 23 43 47 57 26 34
40 42 43 43 44 45 47 49 50 52 53 54 56 59 66 59 52 29 46 54 53 21 15 41 53 41 61 42 38 26 13 16 15 24 17 32 16 42 75 42 31 25 44 44 33 37 36
39 41 42 44 47 49 50 51 52 52 52 53 57 62 59 53 43 25 33 39 39 43 46 69 71 83 82 78 74 67 52 52 30 16 16 18 46 54 30 32 37 42 45 45 28 27 29
38 40 42 44 47 50 52 53 53 53 54 55 55 57 55 41 29 26 37 41 45 52 21 56 53 47 62 61 63 65 64 57 32 28 26 32 31 31 42 40 41 49 51 37 41 24 43
40 40 42 44 46 49 51 53 53 54 53 52 52 56 45 41 19 29 34 48 45 41 8 21 47 29 47 28 48 66 74 61 35 36 30 30 36 42 42 51 41 46 34 46 42 25 37
42 42 42 44 47 50 51 52 53 54 53 51 50 51 33 24 34 26 42 47 40 18 8 28 17 17 39 28 30 31 41 30 32 31 24 47 28 21 40 44 37 50 28 37 28 34 32
42 43 44 46 48 50 50 53 54 54 53 50 43 36 31 23 28 46 51 33 25 4 7 18 12 24 27 21 16 23 17 36 19 26 26 32 43 37 39 34 40 35 33 37 29 24 22
44 45 46 47 48 50 52 56 59 56 52 49 37 23 18 17 25 37 35 28 3 2 30 18 37 35 34 40 34 30 25 33 15 15 23 26 35 32 40 34 37 29 23 14 19 20 34
46 47 47 47 47 52 57 61 63 60 50 47 34 14 16 13 17 31 32 4 6 14 33 44 35 22 19 33 27 29 28 25 28 22 11 18 19 18 20 36 22 25 28 19 27 25 33
49 49 48 47 48 54 60 65 66 62 51 47 27 9 9 6 15 20 20 4 10 20 27 35 40 23 21 33 8 19 26 17 19 10 3 6 13 24 33 36 31 41 34 35 34 21 13
51 49 49 49 51 54 61 67 67 64 55 42 38 25 15 21 19 14 4 8 17 32 47 28 31 25 19 32 18 21 9 16 19 4 12 7 18 20 35 30 28 20 24 12 23 27 28
51 52 51 51 52 54 60 68 69 65 60 46 20 11 13 14 8 4 0 8 40 47 59 1 13 29 19 21 19 25 14 20 23 25 28 15 8 27 21 8 18 20 28 21 12 20 24
50 51 53 53 55 55 57 64 68 65 65 53 14 7 12 13 6 4 5 30 48 45 53 25 22 23 5 26 23 15 25 4 8 9 21 8 6 14 24 32 32 29 40 32 18 27 20
49 51 53 54 55 58 56 58 63 58 57 58 32 18 18 5 3 4 19 27 36 37 25 24 21 26 24 18 9 19 16 19 24 11 7 5 6 9 12 14 18 16 25 26 11 12 40
51 51 52 54 56 58 59 54 59 54 42 45 15 7 17 25 28 19 19 18 30 29 30 34 28 27 15 14 14 13 8 15 25 24 22 6 7 14 14 28 21 22 39 32 24 20 15
51 51 52 53 55 58 61 53 55 53 35 29 7 10 27 9 23 30 24 18 28 33 25 35 11 20 28 24 32 26 23 14 22 15 6 7 11 16 29 39 21 26 39 39 35 29 23
50 51 52 54 55 56 58 54 53 57 43 17 16 14 23 40 38 33 8 5 22 29 30 20 25 28 25 26 34 27 30 26 16 7 10 10 7 15 29 36 19 28 41 39 37 42 30
51 51 52 54 56 55 55 53 47 52 48 14 19 21 20 17 23 20 21 25 18 37 10 42 39 22 24 33 47 51 50 45 32 28 13 14 10 9 11 10 14 10 34 42 29 34 35
51 53 53 54 55 54 51 53 47 43 40 30 27 31 15 12 17 25 41 37 33 38 28 42 43 19 33 66 83 61 53 50 37 31 23 20 19 2 10 6 8 4 19 22 25 25 39
54 54 54 54 55 51 49 50 49 45 39 36 26 18 12 9 29 37 37 42 49 38 27 39 50 63 66 29 11 14 8 4 20 30 27 28 13 5 6 6 13 20 30 20 20 26 32
56 56 56 54 55 51 49 49 50 49 39 40 36 16 33 13 13 43 49 47 26 16 15 29 61 52 26 3 7 8 8 7 9 16 25 21 17 8 5 6 6 8 34 55 37 14 25
64 63 60 57 52 52 50 48 48 48 41 42 43 8 30 27 52 30 30 31 31 34 11 19 32 21 26 9 6 5 6 9 8 10 11 2 6 5 7 6 9 30 52 74 8 3 39
64 62 66 62 51 52 50 48 47 46 48 46 54 19 31 27 67 60 32 46 62 54 9 21 20 9 6 11 7 7 6 9 7 7 6 6 8 2 2 6 7 34 38 12 12 42 47
61 67 65 65 52 49 49 47 47 46 44 49 51 17 26 33 54 77 61 45 44 42 44 5 8 8 10 5 7 6 5 6 8 8 11 4 9 6 12 5 6 41 34 38 34 29 34
Wind_Direction_500mb
31 28 25 22 19 15 11 8 5 2 359 356 354 352 349 346 343 339 333 328 324 321 319 315 310 307 304 259 241 222 306 315 325 226 212 219 230 240 252 263 235 235 243 244 247 249 254
29 25 21 16 14 11 11 11 10 8 5 1 356 351 347 345 341 336 330 325 322 316 312 310 307 302 293 260 278 242 258 261 262 245 223 221 231 236 272 258 251 262 251 246 245 248 254
26 20 15 11 12 11 10 10 11 10 6 0 354 350 346 343 339 334 327 319 314 309 307 307 301 292 268 257 284 254 231 231 204 222 240 235 240 226 211 250 258 266 272 277 255 245 250
23 18 19 19 18 16 13 13 9 5 1 357 353 349 345 343 341 337 328 320 311 297 292 299 302 278 256 313 309 277 235 249 240 231 241 237 249 275 268 264 263 264 275 258 258 258 256
22 23 24 23 23 21 18 14 8 3 360 356 353 349 344 343 337 337 332 331 334 297 279 290 294 268 267 326 266 304 261 242 242 244 256 254 259 265 278 255 262 231 238 250 255 241 247
22 22 22 21 19 14 10 6 2 359 356 352 350 346 342 341 336 337 344 352 356 304 307 291 288 271 267 243 309 258 260 228 238 244 251 230 232 234 237 225 220 216 223 234 246 242 237
18 19 18 16 12 8 4 1 359 357 352 347 343 343 346 344 340 347 351 1 9 358 344 293 277 229 273 274 304 289 236 258 267 232 226 248 218 219 222 220 239 260 236 245 247 237 257
15 16 13 11 8 3 360 358 356 352 347 345 345 348 341 341 342 357 348 341 353 320 296 285 275 270 264 266 279 280 277 284 268 237 224 233 229 231 242 236 235 246 264 261 271 249 251
9 9 6 5 2 357 355 353 353 349 346 347 345 344 339 350 349 359 343 345 337 334 309 302 291 262 268 243 253 258 253 250 248 251 244 233 247 228 238 232 237 229 240 254 258 287 284
5 5 2 1 358 357 353 350 350 348 346 346 346 344 342 353 14 359 352 337 333 339 308 319 352 1 343 238 252 260 255 232 226 239 244 260 255 241 250 230 233 242 233 239 254 252 257
1 359 359 359 357 356 353 349 347 347 345 346 348 343 354 351 337 347 330 332 329 345 311 338 288 344 338 4 330 329 289 233 223 226 217 242 274 257 250 249 227 250 236 251 241 241 258
356 352 353 352 353 353 353 348 345 347 344 344 348 346 357 13 355 345 325 339 321 38 311 303 315 327 335 334 330 308 330 306 241 229 254 262 247 252 264 275 240 262 242 251 259 258 260
0 356 355 353 354 355 353 349 344 346 344 340 344 347 354 347 353 326 6 359 359 75 302 350 351 360 355 358 333 329 286 234 283 227 233 254 267 248 251 266 269 258 225 245 237 233 239
2 359 357 356 357 355 353 350 346 346 345 338 338 322 347 331 354 333 353 357 11 328 334 330 340 13 355 4 334 327 322 316 189 236 300 268 276 272 257 234 263 252 230 217 214 219 251
4 2 359 358 357 354 354 352 348 346 347 336 338 344 316 333 312 351 6 351 346 348 284 331 327 335 339 354 339 353 335 322 305 87 319 14 257 282 302 302 231 252 251 230 252 279 245
3 3 359 355 352 352 355 354 351 347 348 339 328 313 272 237 329 18 51 256 302 328 343 14 323 330 349 326 333 353 320 283 333 113 177 297 290 274 286 313 301 258 251 241 221 234 255
1 1 359 356 351 349 352 355 354 348 350 346 336 288 185 264 5 324 127 269 317 344 317 211 273 329 339 337 331 322 270 329 9 337 348 345 263 272 290 246 272 290 242 243 278 210 235
357 358 358 358 357 351 348 354 358 350 349 353 10 297 225 329 248 182 273 316 317 325 350 335 323 333 358 284 312 316 341 240 303 296 306 32 292 290 285 276 268 272 283 239 225 228 238
352 354 355 356 357 357 351 351 359 355 348 348 337 282 261 293 287 277 294 329 324 335 325 312 338 318 1 335 342 315 327 237 247 272 275 35 308 302 285 232 226 248 268 247 236 241 223
349 349 351 353 355 355 354 350 357 360 348 344 334 317 354 323 351 336 329 313 323 317 322 341 321 317 309 302 287 261 268 305 232 269 284 151 257 250 277 301 312 291 316 325 262 237 229
347 348 348 349 351 352 353 352 354 360 355 346 322 336 3 319 329 308 321 286 316 327 338 325 302 323 318 315 303 301 314 278 264 155 103 130 257 252 274 283 279 266 284 299 304 261 230
342 346 348 347 347 349 351 353 352 358 8 8 340 339 325 299 308 305 48 293 303 318 329 312 317 332 330 294 292 320 308 304 285 203 160 203 256 268 286 275 194 251 268 281 278 281 267
338 336 338 343 345 344 346 349 348 354 1 2 321 322 320 285 308 323 327 346 298 309 306 315 310 342 302 297 310 301 289 276 270 267 251 201 237 323 289 182 163 298 256 264 261 274 276
334 334 334 336 339 343 343 345 345 344 349 333 329 313 285 283 312 313 317 323 339 325 310 311 317 304 325 328 319 297 270 260 248 246 209 239 261 160 256 139 198 233 339 228 237 278 320
335 331 332 331 333 337 341 342 344 340 334 331 341 294 288 278 298 302 335 322 319 318 320 318 331 324 319 333 296 303 324 312 226 223 208 212 220 248 270 222 334 351 350 354 336 25 356
325 326 326 328 326 331 333 336 338 341 335 326 334 257 280 279 243 320 313 308 314 327 314 316 327 331 358 224 318 323 6 313 319 342 306 197 188 172 15 299 279 184 324 331 314 64 343
326 322 321 322 321 321 326 328 331 335 332 326 323 283 282 268 280 282 302 304 305 321 290 311 336 326 3 340 346 318 331 333 7 355 338 52 344 237 197 194 246 335 333 310 121 39 311
320 319 320 317 314 315 318 321 326 328 330 323 319 312 259 270 282 285 298 287 300 301 307 319 333 358 321 1 351 346 326 355 323 323 357 353 308 300 210 43 337 358 319 57 334 330 298
317 317 320 320 311 312 314 316 320 325 326 324 312 307 271 277 269 289 298 303 281 265 276 281 274 276 340 344 15 305 314 309 337 1 357 355 346 325 354 75 336 330 334 360 322 287 342
Wind_Speed_850mb
35 34 34 35 37 38 38 38 38 38 37 36 37 39 41 42 43 42 40 39 39 42 44 42 40 40 37 22 51 25 29 25 26 22 56 47 49 41 28 20 45 51 41 55 63 67 73
37 37 37 37 39 39 39 40 40 39 39 40 42 44 46 46 46 45 45 43 41 39 41 46 48 43 32 34 31 27 25 39 47 20 32 45 43 49 36 33 41 47 47 58 60 68 70
35 38 39 39 37 35 35 35 37 38 39 39 40 41 42 43 44 47 48 48 44 42 46 40 39 38 41 66 45 37 45 38 31 41 40 45 47 41 15 27 66 56 39 38 50 58 51
39 40 39 39 38 37 37 37 37 39 41 42 44 46 48 47 49 54 52 48 41 37 40 37 37 27 28 47 29 34 36 41 38 40 42 40 44 39 26 36 45 35 26 42 42 40 59
42 41 40 40 40 40 39 39 41 44 48 50 52 56 59 60 58 59 55 49 39 25 35 35 37 18 26 22 31 16 16 51 42 42 42 39 38 40 30 11 15 26 40 45 49 46 35
42 43 42 42 42 42 42 45 47 50 53 54 57 59 59 57 57 55 46 42 37 28 20 14 23 18 33 17 7 14 9 18 23 34 41 49 36 20 19 23 36 23 43 47 57 26 34
40 42 43 43 44 45 47 49 50 52 53 54 56 59 66 59 52 29 46 54 53 21 15 41 53 41 61 42 38 26 13 16 15 24 17 32 16 42 75 42 31 25 44 44 33 37 36
39 41 42 44 47 49 50 51 52 52 52 53 57 62 59 53 43 25 33 39 39 43 46 69 71 83 82 78 74 67 52 52 30 16 16 18 46 54 30 32 37 42 45 45 28 27 29
38 40 42 44 47 50 52 53 53 53 54 55 55 57 55 41 29 26 37 41 45 52 21 56 53 47 62 61 63 65 64 57 32 28 26 32 31 31 42 40 41 49 51 37 41 24 43
40 40 42 44 46 49 51 53 53 54 53 52 52 56 45 41 19 29 34 48 45 41 8 21 47 29 47 28 48 66 74 61 35 36 30 30 36 42 42 51 41 46 34 46 42 25 37
42 42 42 44 47 50 51 52 53 54 53 51 50 51 33 24 34 26 42 47 40 18 8 28 17 17 39 28 30 31 41 30 32 31 24 47 28 21 40 44 37 50 28 37 28 34 32
42 43 44 46 48 50 50 53 54 54 53 50 43 36 31 23 28 46 51 33 25 4 7 18 12 24 27 21 16 23 17 36 19 26 26 32 43 37 39 34 40 35 33 37 29 24 22
44 45 46 47 48 50 52 56 59 56 52 49 37 23 18 17 25 37 35 28 3 2 30 18 37 35 34 40 34 30 25 33 15 15 23 26 35 32 40 34 37 29 23 14 19 20 34
46 47 47 47 47 52 57 61 63 60 50 47 34 14 16 13 17 31 32 4 6 14 33 44 35 22 19 33 27 29 28 25 28 22 11 18 19 18 20 36 22 25 28 19 27 25 33
49 49 48 47 48 54 60 65 66 62 51 47 27 9 9 6 15 20 20 4 10 20 27 35 40 23 21 33 8 19 26 17 19 10 3 6 13 24 33 36 31 41 34 35 34 21 13
51 49 49 49 51 54 61 67 67 64 55 42 38 25 15 21 19 14 4 8 17 32 47 28 31 25 19 32 18 21 9 16 19 4 12 7 18 20 35 30 28 20 24 12 23 27 28
51 52 51 51 52 54 60 68 69 65 60 46 20 11 13 14 8 4 0 8 40 47 59 1 13 29 19 21 19 25 14 20 23 25 28 15 8 27 21 8 18 20 28 21 12 20 24
50 51 53 53 55 55 57 64 68 65 65 53 14 7 12 13 6 4 5 30 48 45 53 25 22 23 5 26 23 15 25 4 8 9 21 8 6 14 24 32 32 29 40 32 18 27 20
49 51 53 54 55 58 56 58 63 58 57 58 32 18 18 5 3 4 19 27 36 37 25 24 21 26 24 18 9 19 16 19 24 11 7 5 6 9 12 14 18 16 25 26 11 12 40
51 51 52 54 56 58 59 54 59 54 42 45 15 7 17 25 28 19 19 18 30 29 30 34 28 27 15 14 14 13 8 15 25 24 22 6 7 14 14 28 21 22 39 32 24 20 15
51 51 52 53 55 58 61 53 55 53 35 29 7 10 27 9 23 30 24 18 28 33 25 35 11 20 28 24 32 26 23 14 22 15 6 7 11 16 29 39 21 26 39 39 35 29 23
50 51 52 54 55 56 58 54 53 57 43 17 16 14 23 40 38 33 8 5 22 29 30 20 25 28 25 26 34 27 30 26 16 7 10 10 7 15 29 36 19 28 41 39 37 42 30
51 51 52 54 56 55 55 53 47 52 48 14 19 21 20 17 23 20 21 25 18 37 10 42 39 22 24 33 47 51 50 45 32 28 13 14 10 9 11 10 14 10 34 42 29 34 35
51 53 53 54 55 54 51 53 47 43 40 30 27 31 15 12 17 25 41 37 33 38 28 42 43 19 33 66 83 61 53 50 37 31 23 20 19 2 10 6 8 4 19 22 25 25 39
54 54 54 54 55 51 49 50 49 45 39 36 26 18 12 9 29 37 37 42 49 38 27 39 50 63 66 29 11 14 8 4 20 30 27 28 13 5 6 6 13 20 30 20 20 26 32
56 56 56 54 55 51 49 49 50 49 39 40 36 16 33 13 13 43 49 47 26 16 15 29 61 52 26 3 7 8 8 7 9 16 25 21 17 8 5 6 6 8 34 55 37 14 25
64 63 60 57 52 52 50 48 48 48 41 42 43 8 30 27 52 30 30 31 31 34 11 19 32 21 26 9 6 5 6 9 8 10 11 2 6 5 7 6 9 30 52 74 8 3 39
64 62 66 62 51 52 50 48 47 46 48 46 54 19 31 27 67 60 32 46 62 54 9 21 20 9 6 11 7 7 6 9 7 7 6 6 8 2 2 6 7 34 38 12 12 42 47
61 67 65 65 52 49 49 47 47 46 44 49 51 17 26 33 54 77 61 45 44 42 44 5 8 8 10 5 7 6 5 6 8 8 11 4 9 6 12 5 6 41 34 38 34 29 34
Wind_Direction_850mb
31 28 25 22 19 15 11 8 5 2 359 356 354 352 349 346 343 339 333 328 324 321 319 315 310 307 304 259 241 222 306 315 325 226 212 219 230 240 252 263 235 235 243 244 247 249 254
29 25 21 16 14 11 11 11 10 8 5 1 356 351 347 345 341 336 330 325 322 316 312 310 307 302 293 260 278 242 258 261 262 245 223 221 231 236 272 258 251 262 251 246 245 248 254
26 20 15 11 12 11 10 10 11 10 6 0 354 350 346 343 339 334 327 319 314 309 307 307 301 292 268 257 284 254 231 231 204 222 240 235 240 226 211 250 258 266 272 277 255 245 250
23 18 19 19 18 16 13 13 9 5 1 357 353 349 345 343 341 337 328 320 311 297 292 299 302 278 256 313 309 277 235 249 240 231 241 237 249 275 268 264 263 264 275 258 258 258 256
22 23 24 23 23 21 18 14 8 3 360 356 353 349 344 343 337 337 332 331 334 297 279 290 294 268 267 326 266 304 261 242 242 244 256 254 259 265 278 255 262 231 238 250 255 241 247
22 22 22 21 19 14 10 6 2 359 356 352 350 346 342 341 336 337 344 352 356 304 307 291 288 271 267 243 309 258 260 228 238 244 251 230 232 234 237 225 220 216 223 234 246 242 237
18 19 18 16 12 8 4 1 359 357 352 347 343 343 346 344 340 347 351 1 9 358 344 293 277 229 273 274 304 289 236 258 267 232 226 248 218 219 222 220 239 260 236 245 247 237 257
15 16 13 11 8 3 360 358 356 352 347 345 345 348 341 341 342 357 348 341 353 320 296 285 275 270 264 266 279 280 277 284 268 237 224 233 229 231 242 236 235 246 264 261 271 249 251
9 9 6 5 2 357 355 353 353 349 346 347 345 344 339 350 349 359 343 345 337 334 309 302 291 262 268 243 253 258 253 250 248 251 244 233 247 228 238 232 237 229 240 254 258 287 284
5 5 2 1 358 357 353 350 350 348 346 346 346 344 342 353 14 359 352 337 333 339 308 319 352 1 343 238 252 260 255 232 226 239 244 260 255 241 250 230 233 242 233 239 254 252 257
1 359 359 359 357 356 353 349 347 347 345 346 348 343 354 351 337 347 330 332 329 345 311 338 288 344 338 4 330 329 289 233 223 226 217 242 274 257 250 249 227 250 236 251 241 241 258
356 352 353 352 353 353 353 348 345 347 344 344 348 346 357 13 355 345 325 339 321 38 311 303 315 327 335 334 330 308 330 306 241 229 254 262 247 252 264 275 240 262 242 251 259 258 260
0 356 355 353 354 355 353 349 344 346 344 340 344 347 354 347 353 326 6 359 359 75 302 350 351 360 355 358 333 329 286 234 283 227 233 254 267 248 251 266 269 258 225 245 237 233 239
2 359 357 356 357 355 353 350 346 346 345 338 338 322 347 331 354 333 353 357 11 328 334 330 340 13 355 4 334 327 322 316 189 236 300 268 276 272 257 234 263 252 230 217 214 219 251
4 2 359 358 357 354 354 352 348 346 347 336 338 344 316 333 312 351 6 351 346 348 284 331 327 335 339 354 339 353 335 322 305 87 319 14 257 282 302 302 231 252 251 230 252 279 245
3 3 359 355 352 352 355 354 351 347 348 339 328 313 272 237 329 18 51 256 302 328 343 14 323 330 349 326 333 353 320 283 333 113 177 297 290 274 286 313 301 258 251 241 221 234 255
1 1 359 356 351 349 352 355 354 348 350 346 336 288 185 264 5 324 127 269 317 344 317 211 273 329 339 337 331 322 270 329 9 337 348 345 263 272 290 246 272 290 242 243 278 210 235
357 358 358 358 357 351 348 354 358 350 349 353 10 297 225 329 248 182 273 316 317 325 350 335 323 333 358 284 312 316 341 240 303 296 306 32 292 290 285 276 268 272 283 239 225 228 238
352 354 355 356 357 357 351 351 359 355 348 348 337 282 261 293 287 277 294 329 324 335 325 312 338 318 1 335 342 315 327 237 247 272 275 35 308 302 285 232 226 248 268 247 236 241 223
349 349 351 353 355 355 354 350 357 360 348 344 334 317 354 323 351 336 329 313 323 317 322 341 321 317 309 302 287 261 268 305 232 269 284 151 257 250 277 301 312 291 316 325 262 237 229
347 348 348 349 351 352 353 352 354 360 355 346 322 336 3 319 329 308 321 286 316 327 338 325 302 323 318 315 303 301 314 278 264 155 103 130 257 252 274 283 279 266 284 299 304 261 230
342 346 348 347 347 349 351 353 352 358 8 8 340 339 325 299 308 305 48 293 303 318 329 312 317 332 330 294 292 320 308 304 285 203 160 203 256 268 286 275 194 251 268 281 278 281 267
338 336 338 343 345 344 346 349 348 354 1 2 321 322 320 285 308 323 327 346 298 309 306 315 310 342 302 297 310 301 289 276 270 267 251 201 237 323 289 182 163 298 256 264 261 274 276
334 334 334 336 339 343 343 345 345 344 349 333 329 313 285 283 312 313 317 323 339 325 310 311 317 304 325 328 319 297 270 260 248 246 209 239 261 160 256 139 198 233 339 228 237 278 320
335 331 332 331 333 337 341 342 344 340 334 331 341 294 288 278 298 302 335 322 319 318 320 318 331 324 319 333 296 303 324 312 226 223 208 212 220 248 270 222 334 351 350 354 336 25 356
325 326 326 328 326 331 333 336 338 341 335 326 334 257 280 279 243 320 313 308 314 327 314 316 327 331 358 224 318 323 6 313 319 342 306 197 188 172 15 299 279 184 324 331 314 64 343
326 322 321 322 321 321 326 328 331 335 332 326 323 283 282 268 280 282 302 304 305 321 290 311 336 326 3 340 346 318 331 333 7 355 338 52 344 237 197 194 246 335 333 310 121 39 311
320 319 320 317 314 315 318 321 326 328 330 323 319 312 259 270 282 285 298 287 300 301 307 319 333 358 321 1 351 346 326 355 323 323 357 353 308 300 210 43 337 358 319 57 334 330 298
317 317 320 320 311 312 314 316 320 325 326 324 312 307 271 277 269 289 298 303 281 265 276 281 274 276 340 344 15 305 314 309 337 1 357 355 346 325 354 75 336 330 334 360 322 287 342